STARLINK-31025, 58634

Orbit data source: Space-Track

STARLINK-31025, 58634 is a payload satellite owned by SpaceX/Seattle (US) in LEO that was launched on Sat, 23 Dec 2023 UTC via an FALCON 9 launch vehicle from the Air Force Eastern Test Range (AFETR). Payload-class satellites include a variety of spacecraft equipped with specific instruments for various scientific and technological missions. These include communications satellites like Starlink; space stations such as the ISS; scientific satellites like the Hubble; Earth observation satellites from companies like Planet Labs, Umbra, and HawkEye 360; GPS; miniature CubeSats for education and research; and military/defense satellites.

Loading next visibility...
Identifier
58634, 2023-203S
Orbit
LEO
Country
Flag of USUS
Related business
Manufacturer
SpaceX/Seattle
Mission
Operational Commercial Communications
Bus & Motor
STARLINK V2M, Unknown motor
Mass
730 kg wet, ~700 kg dry
Launch date (UTC)
2023-12-23 (2 years ago)
Launch vehicle
FALCON 9
Launch site
Air Force Eastern Test Range (AFETR)
Object type
Payload
Rocket body
Debris
Shape & HBR
Box + 2 Pan, 17.7 m
Radar Cross Section
33.884 m², Large (>1 m²)

Expand to show TLE details & history
Last TLE update: 2 days ago

TLE from 2 days ago
0 STARLINK-31025
1 58634U 23203S   26171.40275353  .00000610  00000-0  31685-4 0  9996
2 58634  42.9998 206.6383 0000885 263.8876  96.1875 15.27578728140506
Epoch: 2026-06-20T09:39Z
TLE epoch observation values (Epoch: 2026-06-20T09:39:57.904Z)
Latitude
-0.00003°
Longitude
153.02912°
Altitude
482.894 km
Speed
7.626 km/s
True Right ascension
13h 46m 33s
True Declination
0° 00' 00"
Sunlit
Object was in full shadow at epoch
Visualization orbit readout
Latitude
Unknown
Longitude
Unknown
Altitude
Unknown
Speed
Unknown
Apparent Right ascension
Unknown
Apparent Declination
Unknown
Sunlit
N/A
Visualization observer readout
Local Sidereal Time
21:26:16
Azimuth
Unknown
Elevation
Unknown
Doppler factor
Unknown
Orbital elements
Apogee altitude
485.605 km
Perigee altitude
484.391 km
Semi-major axis
6,863.135 km
Eccentricity
0.00009
Inclination
42.9998°
RAAN
206.6383°
Arg. of periapsis
263.8876°
True anomaly
96.19758°
Mean anomaly
96.1875°
Eccentric anomaly
96.19254°
Mean motion
3.81733 °/min
Orbital period
94.31 mins
BSTAR
0.000031685
Loading maneuver chart data...
Computing Atmospheric mass density...
Loading historical data...
Loading historical data...
Loading historical data...
Loading historical data...
Loading historical data...
Loading historical data...
Loading historical data...

Documentation

Showing up to 5 results
|